GPS BIIRM-3 (PRN 12)

Last updated on Wed Sep 23 2026 00:03:54 GMT+0000 (Coordinated Universal Time)

1 29601U 06052A 26265.14385619 -.00000008 00000+0 00000+0 0 9996 2 29601 54.9219 210.1661 0085733 91.1474 269.8169 2.00563431145352
UTC large
Height (km)
Speed (km/s)
/
Latitude / Longitude
Inclination (degrees)
Orbital Period (minutes)
Azimuth
Elevation
Range (km)
Doppler Factor

Next 0 passes for location: London (51.5072 / 0.1276)

No passes found over London.
GPS BIIRM-3 (PRN 12)